Location: ?????????
(41.2393°N, 22.9479°E)
Time: 21:46:33
(UTC+00:00)

Cosmos 44 Rocket - Pass Details

Date: 17 November 2025
Orbit: 637 x 741 km, 65.1° (Epoch: 11 December)

Event Time Altitude Azimuth Distance (km) Brightness Sun altitude
Rises 15:56:31 0° 205° (SSW) 2,964 7.2 -9.5°
Reaches altitude 10° 15:58:47 10° 203° (SSW) 2,070 6.3 -9.9°
Maximum altitude 16:03:28 73° 119° (ESE) 709 3.2 -10.7°
Drops below altitude 10° 16:08:20 10° 36° (NE) 2,150 5.4 -11.6°
Enters shadow 16:08:34 - 36° (NE) 2,240 5.5 -11.6°
